COSMOS 2584 (704K)

Last updated on Mon Sep 21 2026 00:03:22 GMT+0000 (Coordinated Universal Time)

1 63130U 25042A 26262.46097414 .00000029 00000+0 00000+0 0 9998 2 63130 65.1442 69.6002 0006647 202.9598 157.0425 2.13103522 12059
UTC large
Height (km)
Speed (km/s)
/
Latitude / Longitude
Inclination (degrees)
Orbital Period (minutes)
Azimuth
Elevation
Range (km)
Doppler Factor

Next 0 passes for location: London (51.5072 / 0.1276)

No passes found over London.
COSMOS 2584 (704K)